When you browse on this site, cookies collect data to enhance your experience and personalize the content and advertising you see.
Visit our Privacy Policy to learn more. By continuing to use the site, you agree to this use of cookies and data.
  • In Österreich
  • Länderverzeichnis
  • Für 7 Tage
  • Wassertemperatur
  • Satellitenkarten
  • Wetterkarte
  • News
  • Widgets
  • user-avatar
    Anmelden

    Stündliche Wetter Trotwood

    Heute, 21 April, Sonntag

    Zeit Temperatur Niederschläge Wind Luftdruck Luftfeuchtigkeit
    00:00 +4°C° 0 mm 2 m/S 734 mmHg 94%
    01:00 +5°C° 0 mm 2 m/S 735 mmHg 93%
    02:00 +6°C° 0 mm 1 m/S 735 mmHg 93%
    03:00 +6°C° 0 mm 1 m/S 735 mmHg 93%
    04:00 +6°C° 0 mm 1 m/S 736 mmHg 92%
    05:00 +6°C° 0 mm 1 m/S 737 mmHg 91%
    06:00 +7°C° 0 mm 1 m/S 738 mmHg 91%
    07:00 +7°C° 0 mm 2 m/S 738 mmHg 85%
    08:00 +9°C° 0 mm 2 m/S 739 mmHg 80%
    09:00 +12°C° 0 mm 2 m/S 739 mmHg 75%
    10:00 +13°C° 0 mm 2 m/S 739 mmHg 70%
    11:00 +15°C° 0 mm 2 m/S 739 mmHg 65%
    12:00 +17°C° 0 mm 2 m/S 739 mmHg 60%
    13:00 +18°C° 0 mm 2 m/S 739 mmHg 58%
    14:00 +19°C° 0 mm 3 m/S 739 mmHg 55%
    15:00 +19°C° 0 mm 3 m/S 739 mmHg 52%
    16:00 +18°C° 0 mm 2 m/S 740 mmHg 56%
    17:00 +18°C° 0 mm 1 m/S 740 mmHg 61%
    18:00 +14°C° 0 mm 0 m/S 740 mmHg 65%
    19:00 +14°C° 0 mm 1 m/S 740 mmHg 69%
    20:00 +13°C° 0 mm 1 m/S 741 mmHg 74%
    21:00 +12°C° 0 mm 1 m/S 741 mmHg 78%
    22:00 +12°C° 0 mm 1 m/S 741 mmHg 81%
    23:00 +11°C° 0 mm 1 m/S 741 mmHg 84%

    Morgen, 22 April, Montag

    Zeit Temperatur Niederschläge Wind Luftdruck Luftfeuchtigkeit
    00:00 +10°C° 0 mm 2 m/S 741 mmHg 86%
    01:00 +10°C° 0 mm 2 m/S 741 mmHg 86%
    02:00 +10°C° 0 mm 1 m/S 741 mmHg 86%
    03:00 +10°C° 0 mm 1 m/S 741 mmHg 86%
    04:00 +9°C° 0 mm 2 m/S 742 mmHg 86%
    05:00 +9°C° 0 mm 2 m/S 742 mmHg 86%
    06:00 +10°C° 0 mm 2 m/S 742 mmHg 85%
    07:00 +13°C° 0 mm 2 m/S 742 mmHg 77%
    08:00 +16°C° 0 mm 3 m/S 743 mmHg 69%
    09:00 +18°C° 0 mm 3 m/S 743 mmHg 61%
    10:00 +19°C° 0 mm 3 m/S 743 mmHg 57%
    11:00 +21°C° 0 mm 3 m/S 743 mmHg 53%
    12:00 +22°C° 0 mm 4 m/S 742 mmHg 49%
    13:00 +22°C° 0 mm 4 m/S 742 mmHg 50%
    14:00 +23°C° 0 mm 4 m/S 741 mmHg 50%
    15:00 +23°C° 0 mm 4 m/S 740 mmHg 50%
    16:00 +21°C° 0 mm 4 m/S 740 mmHg 57%
    17:00 +20°C° 0 mm 4 m/S 740 mmHg 63%
    18:00 +19°C° 0 mm 3 m/S 740 mmHg 69%
    19:00 +18°C° 0 mm 3 m/S 740 mmHg 71%
    20:00 +17°C° 0 mm 4 m/S 740 mmHg 73%
    21:00 +17°C° 0 mm 4 m/S 740 mmHg 75%
    22:00 +17°C° 0 mm 4 m/S 740 mmHg 76%
    23:00 +15°C° 0 mm 4 m/S 740 mmHg 77%

    übermorgen, 23 April, Dienstag

    Zeit Temperatur Niederschläge Wind Luftdruck Luftfeuchtigkeit
    00:00 +16°C° 0 mm 3 m/S 740 mmHg 78%
    01:00 +15°C° 0 mm 4 m/S 739 mmHg 81%
    02:00 +14°C° 0 mm 4 m/S 739 mmHg 84%
    03:00 +13°C° 0 mm 4 m/S 739 mmHg 86%
    04:00 +14°C° 0 mm 4 m/S 739 mmHg 87%
    05:00 +14°C° 0 mm 4 m/S 739 mmHg 87%
    06:00 +14°C° 0 mm 5 m/S 739 mmHg 88%
    07:00 +16°C° 0 mm 5 m/S 739 mmHg 82%
    08:00 +19°C° 0 mm 5 m/S 739 mmHg 77%
    09:00 +21°C° 0 mm 6 m/S 738 mmHg 71%
    10:00 +22°C° 0 mm 6 m/S 738 mmHg 68%
    11:00 +24°C° 0 mm 7 m/S 738 mmHg 65%
    12:00 +26°C° 0 mm 7 m/S 737 mmHg 62%
    13:00 +24°C° 2.5 mm 7 m/S 737 mmHg 68%
    14:00 +23°C° 2.5 mm 7 m/S 736 mmHg 73%
    15:00 +22°C° 2.5 mm 7 m/S 736 mmHg 78%
    16:00 +21°C° 2.3 mm 6 m/S 736 mmHg 82%
    17:00 +20°C° 2.3 mm 5 m/S 736 mmHg 85%
    18:00 +19°C° 2.3 mm 4 m/S 736 mmHg 88%
    19:00 +19°C° 1.3 mm 4 m/S 737 mmHg 89%
    20:00 +18°C° 1.3 mm 3 m/S 737 mmHg 91%
    21:00 +17°C° 1.3 mm 3 m/S 737 mmHg 92%
    22:00 +16°C° 0.8 mm 3 m/S 737 mmHg 92%
    23:00 +14°C° 0.8 mm 3 m/S 737 mmHg 92%

    24 April, Mittwoch

    Zeit Temperatur Niederschläge Wind Luftdruck Luftfeuchtigkeit
    00:00 +14°C° 0.8 mm 2 m/S 737 mmHg 92%
    01:00 +14°C° 0.5 mm 2 m/S 737 mmHg 92%
    02:00 +13°C° 0.5 mm 2 m/S 737 mmHg 92%
    03:00 +12°C° 0.5 mm 3 m/S 736 mmHg 92%
    04:00 +12°C° 0.8 mm 3 m/S 737 mmHg 92%
    05:00 +12°C° 0.8 mm 3 m/S 737 mmHg 92%
    06:00 +12°C° 0.8 mm 3 m/S 737 mmHg 92%
    07:00 +11°C° 0.5 mm 3 m/S 737 mmHg 91%
    08:00 +11°C° 0.5 mm 4 m/S 737 mmHg 89%
    09:00 +11°C° 0.5 mm 4 m/S 738 mmHg 88%
    10:00 +11°C° 0.1 mm 4 m/S 738 mmHg 86%
    11:00 +11°C° 0.1 mm 4 m/S 737 mmHg 84%
    12:00 +11°C° 0.1 mm 4 m/S 737 mmHg 82%
    13:00 +12°C° 0 mm 4 m/S 737 mmHg 81%
    14:00 +12°C° 0 mm 3 m/S 737 mmHg 80%
    15:00 +12°C° 0 mm 3 m/S 736 mmHg 78%
    16:00 +12°C° 0 mm 3 m/S 737 mmHg 78%
    17:00 +13°C° 0 mm 2 m/S 737 mmHg 78%
    18:00 +13°C° 0 mm 2 m/S 737 mmHg 78%
    19:00 +12°C° 0 mm 2 m/S 737 mmHg 79%
    20:00 +10°C° 0 mm 2 m/S 737 mmHg 80%
    21:00 +10°C° 0 mm 2 m/S 737 mmHg 81%
    22:00 +9°C° 0 mm 2 m/S 737 mmHg 81%
    23:00 +9°C° 0 mm 2 m/S 737 mmHg 80%

    25 April, Donnerstag

    Zeit Temperatur Niederschläge Wind Luftdruck Luftfeuchtigkeit
    00:00 +8°C° 0 mm 2 m/S 737 mmHg 80%
    01:00 +8°C° 0 mm 2 m/S 737 mmHg 79%
    02:00 +7°C° 0 mm 2 m/S 737 mmHg 78%
    03:00 +7°C° 0 mm 2 m/S 737 mmHg 77%
    04:00 +7°C° 0 mm 2 m/S 737 mmHg 76%
    05:00 +8°C° 0 mm 1 m/S 737 mmHg 74%
    06:00 +9°C° 0 mm 1 m/S 738 mmHg 73%
    07:00 +11°C° 0 mm 1 m/S 738 mmHg 67%
    08:00 +13°C° 0 mm 1 m/S 738 mmHg 61%
    09:00 +15°C° 0 mm 1 m/S 738 mmHg 55%
    10:00 +18°C° 0 mm 1 m/S 738 mmHg 52%
    11:00 +19°C° 0 mm 1 m/S 737 mmHg 48%
    12:00 +19°C° 0 mm 2 m/S 737 mmHg 45%
    13:00 +20°C° 0 mm 2 m/S 737 mmHg 45%
    14:00 +21°C° 0 mm 2 m/S 736 mmHg 46%
    15:00 +21°C° 0 mm 3 m/S 736 mmHg 46%
    16:00 +20°C° 0 mm 2 m/S 736 mmHg 52%
    17:00 +19°C° 0 mm 2 m/S 736 mmHg 57%
    18:00 +17°C° 0 mm 2 m/S 736 mmHg 62%
    19:00 +16°C° 0 mm 1 m/S 736 mmHg 64%
    20:00 +15°C° 0 mm 1 m/S 737 mmHg 66%
    21:00 +14°C° 0 mm 1 m/S 737 mmHg 68%
    22:00 +13°C° 0 mm 1 m/S 737 mmHg 70%
    23:00 +13°C° 0 mm 1 m/S 737 mmHg 72%

    26 April, Freitag

    Zeit Temperatur Niederschläge Wind Luftdruck Luftfeuchtigkeit
    00:00 +13°C° 0 mm 2 m/S 737 mmHg 74%
    01:00 +13°C° 0 mm 2 m/S 737 mmHg 77%
    02:00 +12°C° 0 mm 2 m/S 737 mmHg 80%
    03:00 +12°C° 0 mm 2 m/S 737 mmHg 82%
    04:00 +11°C° 0 mm 3 m/S 738 mmHg 83%
    05:00 +11°C° 0 mm 3 m/S 738 mmHg 84%
    06:00 +11°C° 0 mm 3 m/S 739 mmHg 85%
    07:00 +13°C° 0 mm 4 m/S 739 mmHg 78%
    08:00 +15°C° 0 mm 4 m/S 740 mmHg 71%
    09:00 +17°C° 0 mm 4 m/S 740 mmHg 64%
    10:00 +18°C° 0 mm 4 m/S 740 mmHg 58%
    11:00 +19°C° 0 mm 4 m/S 740 mmHg 52%
    12:00 +20°C° 0 mm 4 m/S 740 mmHg 45%
    13:00 +20°C° 0 mm 4 m/S 740 mmHg 45%
    14:00 +20°C° 0 mm 4 m/S 740 mmHg 44%
    15:00 +21°C° 0 mm 4 m/S 740 mmHg 43%
    16:00 +19°C° 0 mm 3 m/S 740 mmHg 48%
    17:00 +18°C° 0 mm 3 m/S 740 mmHg 53%
    18:00 +16°C° 0 mm 2 m/S 741 mmHg 57%
    19:00 +16°C° 0 mm 2 m/S 741 mmHg 57%
    20:00 +15°C° 0 mm 1 m/S 741 mmHg 57%
    21:00 +14°C° 0 mm 1 m/S 741 mmHg 57%
    22:00 +14°C° 0 mm 1 m/S 742 mmHg 58%
    23:00 +13°C° 0 mm 1 m/S 742 mmHg 58%
    Mehr zeigen